Weather in Pervomajsk

Russia / Nizhny Novgorod Oblast'     54°52′03″N   43°48′04″E
temp.,
°C
wind,
m/s
gust,
m/s
humid.,
%
clouds,
%
prec.,
mm/h
press.,
hPa
HPBL,
m
23 october, sat
sat2300:00+8wsw613754 0.0 1005771
03:00+7wsw512755 0.0 1006616
06:00+6sw5127892 0.0 1006489
09:00+7sw612715 0.0 1007795
12:00+10wsw711537 0.0 10081327
15:00+10sw611515 0.0 10081636
18:00+7sw4125899 0.0 1009387
21:00+6wsw5107686 0.0 1009568
24 october, sun
sun2400:00+4sw499286 0.0 1010278
03:00+3wsw49875 0.0 1011320
06:00+2wsw4109432 0.0 1011391
09:00+4wsw4982100 0.0 1012743
12:00+5wsw5971100 0.0 1012843
15:00+6wsw586898 0.0 10121068
18:00+4w489197 1.0 1012635
21:00+3w4792100 1.2 1013761
25 october, mon
mon2500:00+2w4796100 0.3 1014510
03:00+2nw4792100 0.6 1015867
06:00+1nnw6119187 0.4 1018740
09:00+1n61076100 0.4 1022905
12:00+3n69585 0.0 10241138
15:00+3nnw58534 0.0 10251156
18:00−1nw377312 0.0 1028162
21:00−2nw237875 0.0 102967
26 october, tue
tue2600:00−1wsw257618 0.0 1029134
03:00−2wsw397622 0.0 1029241
06:00−1sw4127187 0.0 1028386
09:00+1sw51363100 0.0 1027503
12:00+4wsw61155100 0.0 1025674
15:00+5wsw61355100 0.0 1024768
18:00+3wsw51461100 0.0 1024562
21:00+2wsw5146285 0.0 1023498
27 october, wed
wed2700:00+1wsw51368100 0.0 1022422
03:00+1sw41271100 0.0 1022367
06:00+1sw51269100 0.0 1021423
09:00+2sw51364100 0.0 1020506
12:00+5sw61352100 0.0 1019653
15:00+6sw61351100 0.0 1017783
18:00+5sw61353100 0.0 1017678
21:00+5sw61254100 0.0 1016731